FENGYUN 1C DEB, 30007

Orbit data source: Space-Track

FENGYUN 1C DEB, 30007 is space debris in SSO originally from a launch on Mon, 10 May 1999 UTC launched from the Taiyaun Space Center, China (TSC). Fengyun 1C debris stems from the Chinese weather satellite Fengyun-1C, which was intentionally destroyed by a Chinese anti-satellite missile in 2007. This event dramatically increased the amount of space debris, with thousands of trackable fragments posing hazards to satellites and human spaceflight. The Fengyun 1C debris cloud has become a focal point in discussions about space sustainability and the need for international regulations to prevent the creation of new debris.

Loading next visibility...
Identifier
30007, 1999-025MG
Orbit
SSO
Country
Flag of CNCN / PRC
Related business
Manufacturer
Unknown
Mission
Spacecraft
Bus & Motor
Unknown
Mass
Unknown
Launch date (UTC)
1999-05-10 (27 years ago)
Launch vehicle
Unknown
Launch site
Taiyaun Space Center, China (TSC)
Object type
Payload
Rocket body
Debris
Shape & HBR
Unknown shape, 0.1 m
Radar Cross Section
Medium (>0.1 m² and <1 m²)

Expand to show TLE details & history
Last TLE update: 14 hours ago

TLE from 14 hours ago
0 FENGYUN 1C DEB
1 30007U 99025MG  26170.34512374  .00002119  00000-0  87636-3 0  9996
2 30007  99.1728  85.5990 0060866 192.2659 288.4676 14.26826481   445
Epoch: 2026-06-19T08:16Z
TLE epoch observation values (Epoch: 2026-06-19T08:16:58.691Z)
Latitude
58.78612°
Longitude
-110.84991°
Altitude
798.649 km
Speed
7.467 km/s
True Right ascension
18h 43m 52s
True Declination
58° 38' 04"
Sunlit
Object was in daylight at epoch
Visualization orbit readout
Latitude
Unknown
Longitude
Unknown
Altitude
Unknown
Speed
Unknown
Apparent Right ascension
Unknown
Apparent Declination
Unknown
Sunlit
N/A
Visualization observer readout
Local Sidereal Time
08:43:35
Azimuth
Unknown
Elevation
Unknown
Doppler factor
Unknown
Orbital elements
Apogee altitude
843.218 km
Perigee altitude
755.843 km
Semi-major axis
7,177.667 km
Eccentricity
0.00609
Inclination
99.1728°
RAAN
85.599°
Arg. of periapsis
192.2659°
True anomaly
287.80446°
Mean anomaly
288.4676°
Eccentric anomaly
288.13619°
Mean motion
3.56918 °/min
Orbital period
100.86 mins
BSTAR
0.00087636
Loading maneuver chart data...
Computing Atmospheric mass density...

Documentation

Showing up to 5 results
|